Location: Cerro Alto Campground
(35.4250°N, 120.7383°W)
Time: 11:57:01
(UTC-08:00)

Daily predictions for brighter satellites

Satellite Brightness Start Highest point End
(mag) Time Altitude Azimuth Time Altitude Azimuth Time Altitude Azimuth
Cosmos 1709 Rocket 4.1 18:10:43 10° S 18:16:56 85° W 18:23:06 10° N
Cosmos 2181 Rocket 4.1 18:11:44 10° N 18:18:01 66° E 18:24:21 10° SSE
Cosmos 2074 Rocket 4.4 18:13:42 10° SSE 18:19:27 40° E 18:25:15 10° NNE
Genesis I 3.2 18:16:29 10° NNW 18:20:25 80° ENE 18:24:19 10° SSE
Cosmos 2208 Rocket 4.2 18:18:11 10° N 18:23:31 53° ENE 18:28:44 10° SSE
METEOR-M 4.3 18:18:34 10° SSE 18:23:44 52° ENE 18:28:54 10° N
BREEZE-M DEB (TANK) 3.5 18:23:01 10° NNW 18:25:19 25° NE 18:29:52 10° E
Cosmos 2333 Rocket 3.3 18:22:55 10° N 18:27:33 24° ENE 18:32:09 10° ESE
Cosmos 2184 Rocket 4.3 18:22:16 10° SSE 18:28:13 46° E 18:34:08 10° NNE
Meteor 1-11 Rocket 4.2 18:30:43 10° SSW 18:36:31 73° W 18:42:28 10° N
ATLAS 2A CENTAUR R/B 3.3 18:36:37 10° SSW 18:38:21 15° S 18:41:23 10° SE
Okean 1-7 Rocket 3.6 18:36:35 10° N 18:41:04 66° E 18:45:28 10° SSE
BREEZE-M DEB (TANK) 3.2 18:38:05 10° NW 18:45:01 76° SW 18:47:43 10° SE
Cosmos 2082 4.3 18:42:24 10° SSE 18:47:31 35° ESE 18:52:39 10° NE
Meteor 1-5 Rocket 4.3 18:45:43 10° S 18:51:39 77° E 18:57:32 10° NNE
Hubble Space Telescope 2.0 18:49:07 10° WSW 18:52:46 31° S 18:55:39 14° ESE
Cosmos 1238 Rocket 4.5 18:52:36 10° NNW 18:55:16 29° W 18:58:07 10° SSW
Cosmos 1455 Rocket 3.8 18:51:41 10° SSE 18:55:31 30° E 18:59:20 10° NNE
Longmarch 3A Rocket 3.4 18:56:59 10° SSW 18:57:48 11° S 18:58:47 10° SSE
Cosmos 2154 Rocket 4.4 18:52:11 10° SSE 18:58:04 41° E 19:03:57 10° NNE
Cosmos 405 Rocket 3.2 18:55:35 10° N 18:59:23 39° ENE 19:03:06 10° SSE
H-2A R/B 3.2 18:58:17 10° SE 19:01:41 35° ENE 19:05:08 10° N
FengYun 1-2 T 4.2 18:57:07 10° SSE 19:02:30 61° ENE 19:07:56 10° N
OAO 3 Rocket 3.5 18:58:23 10° WSW 19:03:15 56° SSE 19:06:09 23° E
Cosmos 2285 Rocket 4.0 18:58:52 10° NNW 19:05:19 75° ENE 19:11:41 10° SSE
ALOS 2.2 19:01:02 10° SSE 19:05:40 71° ENE 19:10:20 10° N
Cosmos 2297 Rocket 2.5 19:01:09 10° S 19:06:28 44° ESE 19:11:49 10° NE
CZ-2D R/B 4.0 19:05:26 24° ESE 19:06:41 30° ENE 19:10:02 10° N
Cosmos 2237 Rocket 2.7 19:03:05 10° N 19:08:22 38° ENE 19:11:41 20° ESE
SJ-6B 3.2 19:05:04 10° S 19:09:01 66° W 19:12:54 10° NNW
Cosmos 2219 Rocket 2.1 19:11:49 10° NNW 19:17:27 79° ENE 19:23:04 10° SSE
COSMOS 2428 3.5 19:12:48 10° NNW 19:18:21 54° WSW 19:23:51 10° S
Resurs 01 Rocket 1.5 19:18:40 10° SSE 19:23:03 80° ENE 19:27:28 10° N
Cosmos 1441 Rocket 4.2 19:21:52 10° N 19:24:34 30° NE 19:24:34 30° NE
Cosmos 2227 Rocket 2.2 19:21:38 10° SSW 19:27:17 88° WNW 19:32:58 10° NNE
Resurs 1-3 3.4 19:23:57 10° SSE 19:28:18 76° ENE 19:32:42 10° N
Cosmos 1025 Rocket 4.4 19:26:24 10° NNW 19:30:32 41° W 19:34:40 10° SSW
Cosmos 468 Rocket 3.9 19:26:08 10° NNW 19:31:25 90° WSW 19:36:42 10° SSE
Spot 2 Rocket 3.5 19:29:32 10° SSE 19:34:35 84° WSW 19:39:41 10° NNW
OTV 4 1.2 19:31:42 10° W 19:34:16 47° NNW 19:34:16 47° NNW
Cosmos 1892 Rocket 3.7 19:32:41 10° N 19:37:03 74° W 19:41:25 10° S
GPS 2-04 Rocket1 2.7 19:33:45 10° W 19:38:00 81° SSW 19:38:36 64° ESE
USA 229 DEB 4.2 19:31:31 10° NW 19:38:35 63° WSW 19:45:44 10° SSE
USA 229 4.2 19:31:37 10° NW 19:38:41 64° WSW 19:45:50 10° SSE
Meteor 1-12 Rocket 4.3 19:37:37 10° S 19:43:37 89° E 19:49:33 10° N
SL-16 R/B 3.1 19:40:45 10° N 19:44:57 31° NE 19:44:57 31° NE
GEOS 3 Rocket 3.6 19:42:38 17° NNE 19:46:47 85° NW 19:52:05 10° SW
Envisat 3.9 19:52:51 33° NNE 19:52:51 33° NNE 19:56:03 10° N
NOSS 3-1 (A) 4.1 19:43:50 10° NNW 19:51:27 58° NE 19:54:05 42° ESE
Atlas Centaur 2 2.9 19:47:15 10° WSW 19:54:33 46° S 19:55:42 43° SE
Cosmos 1814 Rocket 4.1 19:49:47 10° NNW 19:54:54 73° WSW 19:57:19 31° S
ATLAS 2AS CENTAUR R/B 4.3 19:50:29 10° N 19:56:23 21° NE 19:56:44 21° NE
Helios 1B rocket 2.9 19:56:35 10° N 20:00:40 59° WNW 20:04:44 10° SSW
Cosmos 1295 Rocket 4.3 19:57:04 10° S 20:03:16 84° E 20:09:35 10° N
Helios 1A 3.5 20:06:13 57° WNW 20:06:13 57° WNW 20:09:51 10° NNW
Cosmos 1975 4.1 20:02:10 10° SSW 20:05:58 40° W 20:09:48 10° N
SL-8 Rocket 3.8 20:01:08 10° S 20:07:20 69° E 20:13:37 10° NNE
NOSS 3-1 (C) 4.0 20:00:19 10° NNW 20:08:08 90° ENE 20:11:31 41° SSE
Cosmos 1980 4.1 20:02:40 10° NNW 20:08:13 59° WSW 20:10:42 32° S
ATLAS CENTAUR R/B 4.2 20:06:36 10° W 20:08:27 14° NW 20:08:30 14° NW
USA 32 4.0 20:06:39 10° N 20:11:53 77° W 20:12:20 70° SW
Cosmos 1354 Rocket 4.0 20:06:41 10° SSW 20:11:51 81° W 20:11:51 81° W
Cosmos 2333 Rocket 3.3 20:06:32 10° NW 20:11:57 43° WSW 20:16:13 16° S
Cosmos 841 Rocket 4.3 20:27:00 10° NNW 20:30:57 47° WNW 20:30:57 47° WNW
ATLAS 3B CENTAUR R/B 4.4 20:04:14 10° WSW 20:32:43 57° S 20:35:57 49° SE
Hubble Space Telescope 3.5 20:30:14 10° WSW 20:31:01 14° WSW 20:31:01 14° WSW
Cosmos 2297 Rocket 4.3 20:46:15 10° WSW 20:50:41 23° WNW 20:55:07 10° N
Cosmos 2237 Rocket 4.0 20:47:34 10° NW 20:52:10 26° WSW 20:53:36 23° SW
ATLAS 2AS CENTAUR R/B 4.4 21:40:34 10° NNW 21:44:11 30° NNW 21:44:11 30° NNW
